Location: Lake Arresoe
(56.0000°N, 12.5000°E)
Time: 09:51:41
(UTC+02:00)

Cosmos 1674 - Pass Details

Date: 20 August 2020
Orbit: 495 x 517 km, 82.5° (Epoch: 23 September)

Event Time Altitude Azimuth Distance (km) Brightness Sun altitude
Rises 01:14:14 0° 346° (NNW) 2,607 7.6 -21.6°
Reaches altitude 10° 01:16:22 10° 343° (NNW) 1,721 6.4 -21.6°
Enters shadow 01:20:04 66° 267° (W) 556 2.7 -21.6°
